Location: Augsburg
(48.3836°N, 10.8929°E)
Time: 15:46:03
(UTC+01:00)

ISS - Pass Details

Date: 14 November 2017
Orbit: 402 x 407 km, 51.6° (Epoch: 23 November)

Event Time Altitude Azimuth Distance (km) Brightness Sun altitude
Exits shadow 05:45:06 42° 264° (W) 590 -3.5 -16.1°
Maximum altitude 05:45:54 58° 209° (SSW) 473 -3.7 -16.0°
Drops below altitude 10° 05:49:07 10° 129° (SE) 1,451 -0.1 -15.5°
Sets 05:51:12 0° 125° (SE) 2,308 1.3 -15.1°
